History for KNYNEWYO324

Midtown, New York, NY — Current Conditions
Daily Summary for June 28, 2017
  Current: High: Low: Average:
Temperature: 71.6°F 72.3°F 71.2°F 71.8°F
Dew Point: 52.8°F 53.1°F 51.4°F 52.5°F
Humidity: 51% 51% 48% 50%
Wind Speed: - 0.0mph - 0.0mph
Wind Gust: - 0.0mph - -
Wind: North - - North
Pressure: 30.09in 30.09in 30.01in -
Precipitation: 0.00in      
Statistics for the rest of the month
    High: Low: Average:
Temperature:   79.2°F 68.4°F 73.5°F
Dew Point:   63.0°F 42.6°F 54.4°F
Humidity:   66.0% 32.0% 50.9%
Wind Speed:   0.0mph from the North - 0.0mph
Wind Gust:   0.0mph from the North - -
Wind:   - - North
Pressure:   30.09in 29.57in -
Precipitation:   0.00in    
KNYNEWYO324 Weather Graph
Tabular Data for June 28, 2017
Time Temp. Dew Point Pressure Wind Gust Humidity Rainfall
00:03 72.3°F 52.4°F 30.01in - 49% -
00:13 72.3°F 52.9°F 30.01in - 50% -
00:23 72.1°F 52.8°F 30.01in - 50% -
00:33 72.1°F 52.8°F 30.02in - 50% -
00:43 72.0°F 52.1°F 30.02in - 49% -
01:03 71.6°F 52.3°F 30.02in - 50% -
01:13 71.4°F 52.1°F 30.02in - 50% -
01:23 71.2°F 51.9°F 30.03in - 50% -
01:33 71.2°F 51.9°F 30.03in - 50% -
01:43 71.2°F 52.5°F 30.03in - 51% -
02:04 71.2°F 51.4°F 30.03in - 49% -
02:14 71.2°F 52.5°F 30.03in - 51% -
02:28 71.4°F 52.6°F 30.03in - 51% -
02:38 71.6°F 52.8°F 30.03in - 51% -
02:48 71.8°F 53.0°F 30.04in - 51% -
03:08 72.0°F 53.1°F 30.04in - 51% -
03:18 72.1°F 52.8°F 30.04in - 50% -
03:28 72.3°F 52.9°F 30.05in - 50% -
03:38 72.1°F 52.8°F 30.05in - 50% -
03:48 72.3°F 52.4°F 30.05in - 49% -
04:08 72.1°F 51.7°F 30.05in - 48% -
04:18 72.0°F 52.6°F 30.06in - 50% -
04:28 72.0°F 52.6°F 30.06in - 50% -
04:38 72.0°F 51.5°F 30.06in - 48% -
04:48 72.0°F 52.6°F 30.07in - 50% -
05:25 71.8°F 52.4°F 30.07in - 50% -
05:28 72.0°F 52.6°F 30.08in - 50% -
05:48 71.6°F 52.3°F 30.08in - 50% -
05:55 71.6°F 52.3°F 30.08in - 50% -
06:25 71.4°F 52.6°F 30.09in - 51% -
06:35 71.6°F 52.8°F 30.09in - 51% -
Comma Delimited File
Powered by Weather Underground, Inc.